JBU572 KFLL-KLGA

Flight info

Callsign JBU572
Flight time N/A
Altitude 37000
Route FEALX2 ETECK GRUBR Y299 SEELO GARIC Q107 HURTS PROUD2
Aircraft A320/M-SDE3FGHIRWY/LB1

Departure

Time 2026-05-04 22:36
Airport Fort Lauderdale Hollywood International Airport (KFLL)

Arrival

Time N/A
Airport LaGuardia Airport (KLGA)
Time Latitude Longitude Altitude Speed Heading
2026-05-04 22:04 26.06880 -80.14341 16 ft 0 kts
2026-05-04 22:23 26.06872 -80.14341 16 ft 4 kts
2026-05-04 22:24 26.06847 -80.14342 18 ft 2 kts
2026-05-04 22:24 26.06825 -80.14339 16 ft 4 kts 322°
2026-05-04 22:24 26.06818 -80.14320 16 ft 4 kts 270°
2026-05-04 22:24 26.06818 -80.14307 16 ft 0 kts 270°
2026-05-04 22:28 26.06818 -80.14308 16 ft 1 kts 270°
2026-05-04 22:28 26.06817 -80.14352 16 ft 8 kts 270°
2026-05-04 22:28 26.06818 -80.14423 16 ft 10 kts 270°
2026-05-04 22:29 26.06818 -80.14465 16 ft 3 kts 270°
2026-05-04 22:29 26.06818 -80.14479 16 ft 3 kts 270°
2026-05-04 22:29 26.06818 -80.14517 16 ft 9 kts 270°
2026-05-04 22:29 26.06791 -80.14584 16 ft 11 kts 215°
2026-05-04 22:30 26.06766 -80.14665 15 ft 13 kts 269°
2026-05-04 22:30 26.06766 -80.14770 15 ft 15 kts 271°
2026-05-04 22:30 26.06766 -80.14890 15 ft 16 kts 270°
2026-05-04 22:30 26.06767 -80.15021 16 ft 18 kts 270°
2026-05-04 22:31 26.06734 -80.15128 18 ft 13 kts 198°
2026-05-04 22:31 26.06695 -80.15198 21 ft 11 kts 266°
2026-05-04 22:31 26.06695 -80.15318 16 ft 22 kts 271°
2026-05-04 22:31 26.06696 -80.15496 16 ft 24 kts 272°
2026-05-04 22:32 26.06697 -80.15689 16 ft 25 kts 270°
2026-05-04 22:32 26.06687 -80.15800 16 ft 7 kts 239°
2026-05-04 22:32 26.06685 -80.15804 16 ft 0 kts 233°
2026-05-04 22:34 26.06673 -80.15817 17 ft 6 kts 218°
2026-05-04 22:34 26.06605 -80.15822 19 ft 11 kts 175°
2026-05-04 22:35 26.06589 -80.15761 19 ft 11 kts 91°
2026-05-04 22:35 26.06588 -80.15456 23 ft 73 kts 90°
2026-05-04 22:35 26.06583 -80.14681 32 ft 127 kts 90°
2026-05-04 22:35 26.06579 -80.13573 348 ft 145 kts 89°
2026-05-04 22:36 26.06599 -80.12452 948 ft 145 kts 83°
2026-05-04 22:36 26.06628 -80.11307 1440 ft 157 kts 84°
2026-05-04 22:36 26.06662 -80.10031 1801 ft 176 kts 84°
2026-05-04 22:36 26.06693 -80.08580 2146 ft 200 kts 87°
2026-05-04 22:37 26.06708 -80.06934 2615 ft 225 kts 88°
2026-05-04 22:37 26.06720 -80.05111 3205 ft 244 kts 86°
2026-05-04 22:37 26.06729 -80.03187 4032 ft 254 kts 88°
2026-05-04 22:37 26.06869 -80.01211 4802 ft 262 kts 73°
2026-05-04 22:38 26.07731 -79.99416 5533 ft 268 kts 50°
2026-05-04 22:38 26.08932 -79.97789 6284 ft 277 kts 49°
2026-05-04 22:38 26.10185 -79.96116 6977 ft 286 kts 48°
2026-05-04 22:38 26.11481 -79.94386 7670 ft 294 kts 48°
2026-05-04 22:39 26.12798 -79.92615 8442 ft 300 kts 48°
2026-05-04 22:39 26.14138 -79.90807 9179 ft 306 kts 48°
2026-05-04 22:39 26.15506 -79.88956 9905 ft 312 kts 47°
2026-05-04 22:39 26.16882 -79.87020 10314 ft 330 kts 50°
2026-05-04 22:40 26.18302 -79.84893 10529 ft 352 kts 51°
2026-05-04 22:40 26.19753 -79.82644 11034 ft 362 kts 52°
2026-05-04 22:40 26.21204 -79.80368 11682 ft 368 kts 52°
2026-05-04 22:40 26.22713 -79.78000 12362 ft 372 kts 52°
2026-05-04 22:41 26.24210 -79.75666 12994 ft 377 kts 51°
2026-05-04 22:41 26.25760 -79.73268 13615 ft 382 kts 51°
2026-05-04 22:41 26.27329 -79.70856 14171 ft 387 kts 51°
2026-05-04 22:41 26.28916 -79.68434 14720 ft 390 kts 49°
2026-05-04 22:42 26.30733 -79.66181 15256 ft 391 kts 42°
2026-05-04 22:42 26.32642 -79.63994 15813 ft 395 kts 41°
2026-05-04 22:42 26.34571 -79.61786 16363 ft 398 kts 41°
2026-05-04 22:42 26.36508 -79.59564 16906 ft 402 kts 42°
2026-05-04 22:43 26.38473 -79.57305 17460 ft 406 kts 41°
2026-05-04 22:43 26.40421 -79.55063 18002 ft 410 kts 41°
2026-05-04 22:43 26.42411 -79.52772 18517 ft 413 kts 41°
2026-05-04 22:43 26.44424 -79.50454 18998 ft 417 kts 41°
2026-05-04 22:44 26.46456 -79.48116 19491 ft 420 kts 42°
2026-05-04 22:44 26.48499 -79.45761 20013 ft 423 kts 42°
2026-05-04 22:44 26.50554 -79.43389 20509 ft 427 kts 42°
2026-05-04 22:44 26.52635 -79.40982 20992 ft 431 kts 42°
2026-05-04 22:45 26.54765 -79.38616 21470 ft 432 kts 37°
2026-05-04 22:45 26.59729 -79.34900 22439 ft 433 kts 26°
2026-05-04 22:45 26.62325 -79.33148 22927 ft 437 kts 26°
2026-05-04 22:46 26.64943 -79.31375 23416 ft 441 kts 26°
2026-05-04 22:46 26.67578 -79.29583 23832 ft 444 kts 26°
2026-05-04 22:46 26.70190 -79.27800 24236 ft 447 kts 26°
2026-05-04 22:46 26.72853 -79.25982 24636 ft 449 kts 26°
2026-05-04 22:47 26.75540 -79.24150 25037 ft 452 kts 26°
2026-05-04 22:47 26.78231 -79.22313 25456 ft 454 kts 26°
2026-05-04 22:47 26.80940 -79.20462 25862 ft 457 kts 26°
2026-05-04 22:47 26.83662 -79.18603 26263 ft 459 kts 26°
2026-05-04 22:48 26.86366 -79.16755 26650 ft 461 kts 26°
2026-05-04 22:48 26.89111 -79.14875 27030 ft 464 kts 26°
2026-05-04 22:48 26.91872 -79.12985 27401 ft 466 kts 26°
2026-05-04 22:48 26.94655 -79.11081 27779 ft 468 kts 26°
2026-05-04 22:49 26.97437 -79.09178 28151 ft 471 kts 26°
2026-05-04 22:49 27.00251 -79.07253 28528 ft 473 kts 26°
2026-05-04 22:49 27.03038 -79.05346 28893 ft 475 kts 25°
2026-05-04 22:49 27.05871 -79.03407 29305 ft 477 kts 25°
2026-05-04 22:50 27.08711 -79.01460 29665 ft 480 kts 25°
2026-05-04 22:50 27.11577 -78.99493 30027 ft 482 kts 24°
2026-05-04 22:50 27.14449 -78.97519 30333 ft 484 kts 25°
2026-05-04 22:50 27.17297 -78.95556 30620 ft 487 kts 25°
2026-05-04 22:51 27.20190 -78.93559 30900 ft 489 kts 25°
2026-05-04 22:51 27.23108 -78.91547 31174 ft 492 kts 25°
2026-05-04 22:51 27.26050 -78.89521 31446 ft 494 kts 25°
2026-05-04 22:51 27.28950 -78.87524 31751 ft 495 kts 25°
2026-05-04 22:52 27.31887 -78.85496 32144 ft 494 kts 25°
2026-05-04 22:52 27.34824 -78.83464 32519 ft 494 kts 25°
2026-05-04 22:52 27.37785 -78.81514 32893 ft 489 kts 19°
2026-05-04 22:52 27.40851 -78.80069 33262 ft 478 kts 10°
2026-05-04 22:53 27.44051 -78.79161 33636 ft 468 kts
2026-05-04 22:53 27.47272 -78.78682 34009 ft 465 kts 359°
2026-05-04 22:53 27.50469 -78.78231 34341 ft 465 kts 359°
2026-05-04 22:53 27.53685 -78.77770 34658 ft 465 kts 359°
2026-05-04 22:54 27.55813 -78.77461 34849 ft 466 kts 359°
2026-05-04 22:54 27.60090 -78.76834 35241 ft 466 kts 359°
2026-05-04 22:54 27.62270 -78.76512 35469 ft 467 kts 359°
2026-05-04 22:54 27.65458 -78.76041 35723 ft 468 kts 359°
2026-05-04 22:55 27.68693 -78.75564 35988 ft 468 kts 359°
2026-05-04 22:55 27.71928 -78.75086 36249 ft 469 kts 359°
2026-05-04 22:55 27.75165 -78.74610 36509 ft 469 kts 359°
2026-05-04 22:55 27.78407 -78.74134 36761 ft 469 kts 359°
2026-05-04 22:56 27.81649 -78.73659 36978 ft 470 kts 359°
2026-05-04 22:56 27.84863 -78.73189 37049 ft 469 kts 358°